Location: ??????
(41.3164°N, 22.6615°E)
Time: 23:26:22
(UTC+00:00)

MOZHAYETS 4 - Visible Passes

Search period start: 27 June 2022 00:00
Search period end: 07 July 2022 00:00
Orbit: 660 x 679 km, 98.2° (Epoch: 27 June)

Date Brightness Start Highest point End Pass type
(mag) Time Alt. Az. Time Alt. Az. Time Alt. Az.
27 Jun 8.5 00:26:29 16° SE 00:29:54 49° ENE 00:34:21 10° N visible
27 Jun 9.4 02:04:40 11° SW 02:07:14 16° W 02:10:08 10° NW visible
27 Jun 10.5 23:24:09 10° E 23:25:55 12° ENE 23:27:42 10° NE visible
28 Jun 7.6 00:59:24 22° S 01:02:21 76° WSW 01:06:59 10° NNW visible
28 Jun 9.8 23:54:23 10° ESE 23:58:05 24° ENE 00:01:46 10° NNE visible
29 Jun 8.5 01:32:19 19° SSW 01:34:58 34° W 01:39:11 10° NNW visible
30 Jun 8.5 00:27:04 17° SE 00:30:24 50° ENE 00:34:51 10° N visible
30 Jun 9.4 02:05:15 11° SW 02:07:44 16° W 02:10:36 10° NW visible
30 Jun 10.5 23:24:37 10° E 23:26:25 12° ENE 23:28:13 10° NE visible
01 Jul 7.6 01:00:00 23° S 01:02:51 75° WSW 01:07:29 10° NNW visible
01 Jul 9.8 23:54:53 10° ESE 23:58:34 24° ENE 00:02:16 10° NNE visible
02 Jul 8.5 01:32:55 20° SSW 01:35:28 34° W 01:39:40 10° NNW visible
03 Jul 8.5 00:27:39 18° SE 00:30:53 50° ENE 00:35:21 10° N visible
03 Jul 9.4 02:05:51 12° SW 02:08:13 16° W 02:11:04 10° NW visible
03 Jul 10.5 23:25:05 10° E 23:26:54 12° ENE 23:28:43 10° NE visible
04 Jul 7.6 01:00:35 24° S 01:03:20 75° WSW 01:07:57 10° NNW visible
04 Jul 9.7 23:55:22 10° ESE 23:59:03 24° ENE 00:02:45 10° NNE visible
05 Jul 8.5 01:33:31 20° SSW 01:35:57 34° W 01:40:08 10° NNW visible
06 Jul 8.5 00:28:16 19° SE 00:31:22 50° ENE 00:35:49 10° N visible
06 Jul 9.4 02:06:27 12° WSW 02:08:42 16° W 02:11:31 10° NW visible
06 Jul 10.5 23:25:32 10° E 23:27:22 12° ENE 23:29:12 10° NE visible
